Location: G�nzburg
(48.4565°N, 10.3217°E)
Time: 20:11:23
(UTC+01:00)

ISS - Pass Details

Date: 12 November 2017
Orbit: 401 x 407 km, 51.6° (Epoch: 18 November)

Event Time Altitude Azimuth Distance (km) Brightness Sun altitude
Exits shadow 05:52:53 32° 296° (WNW) 711 -3.1 -14.8°
Maximum altitude 05:54:14 81° 19° (NNE) 412 -3.9 -14.6°
Drops below altitude 10° 05:57:30 10° 108° (ESE) 1,453 0.4 -14.1°
Sets 05:59:34 0° 110° (ESE) 2,310 1.9 -13.7°
